DW7918 Weather Reports


Display with metric or nautical units.
time (UTC)temp
F
wind
direction
speed
MPH
gust
MPH
rain 1hr
in
rain 24hr
in
rain mn
in
humidity
%
barometer
mb
20260906191403 76 180 5.0 11.0 0.00 0.00 0.00 43 1019.5
20260906191203 76 181 6.0 13.0 0.00 0.00 0.00 44 1019.5
20260906191024 76 181 6.0 13.0 0.00 0.00 0.00 43 1019.6
20260906190803 76 181 6.0 13.0 0.00 0.00 0.00 43 1019.6
20260906190603 76 182 7.0 13.0 0.00 0.00 0.00 44 1019.6
20260906190403 76 183 6.0 13.0 0.00 0.00 0.00 43 1019.5
20260906190224 76 183 5.0 13.0 0.00 0.00 0.00 45 1019.5
20260906190003 76 183 5.0 10.0 0.00 0.00 0.00 47 1019.4
20260906185803 76 181 4.0 10.0 0.00 0.00 0.00 44 1019.4
20260906185603 76 181 4.0 10.0 0.00 0.00 0.00 44 1019.5
20260906185403 76 181 4.0 10.0 0.00 0.00 0.00 46 1019.5
20260906185203 76 182 4.0 10.0 0.00 0.00 0.00 44 1019.5
20260906185003 76 181 4.0 9.0 0.00 0.00 0.00 47 1019.6
20260906184803 75 183 4.0 9.0 0.00 0.00 0.00 47 1019.6
20260906184603 75 178 4.0 9.0 0.00 0.00 0.00 46 1019.6
20260906184424 75 177 4.0 9.0 0.00 0.00 0.00 47 1019.6
20260906184203 75 174 4.0 8.0 0.00 0.00 0.00 49 1019.6
20260906184003 75 175 4.0 8.0 0.00 0.00 0.00 47 1019.6
20260906183824 75 173 4.0 8.0 0.00 0.00 0.00 47 1019.6
20260906183603 75 178 4.0 8.0 0.00 0.00 0.00 47 1019.6
20260906183403 75 177 4.0 8.0 0.00 0.00 0.00 48 1019.6
20260906183224 75 180 4.0 10.0 0.00 0.00 0.00 49 1019.7
20260906183003 75 173 5.0 10.0 0.00 0.00 0.00 49 1019.7
20260906182803 75 175 5.0 10.0 0.00 0.00 0.00 47 1019.7
20260906182603 75 173 5.0 10.0 0.00 0.00 0.00 48 1019.8
20260906182403 75 175 5.0 10.0 0.00 0.00 0.00 47 1019.8
20260906182203 75 175 5.0 12.0 0.00 0.00 0.00 48 1019.8
20260906182004 75 178 5.0 12.0 0.00 0.00 0.00 47 1019.8
20260906181803 75 179 4.0 12.0 0.00 0.00 0.00 50 1019.8
20260906181603 75 179 4.0 12.0 0.00 0.00 0.00 49 1019.8
20260906181403 75 176 4.0 12.0 0.00 0.00 0.00 48 1019.7
20260906181203 75 178 5.0 9.0 0.00 0.00 0.00 49 1019.7
20260906181003 75 178 5.0 9.0 0.00 0.00 0.00 50 1019.8
20260906180824 75 178 5.0 9.0 0.00 0.00 0.00 49 1019.8
20260906180603 75 180 5.0 9.0 0.00 0.00 0.00 50 1019.9
20260906180424 74 182 5.0 9.0 0.00 0.00 0.00 50 1019.9
20260906180203 74 182 5.0 12.0 0.00 0.00 0.00 51 1019.9
20260906180024 74 182 5.0 12.0 0.00 0.00 0.00 51 1019.9
20260906175803 74 180 5.0 12.0 0.00 0.00 0.00 52 1019.9
20260906175603 74 180 6.0 12.0 0.00 0.00 0.00 52 1019.9
20260906175403 74 180 5.0 12.0 0.00 0.00 0.00 50 1020.0
20260906175203 74 178 5.0 11.0 0.00 0.00 0.00 49 1020.0
20260906175024 74 176 5.0 11.0 0.00 0.00 0.00 50 1020.0
20260906174803 75 173 5.0 11.0 0.00 0.00 0.00 49 1020.0
20260906174603 75 175 5.0 11.0 0.00 0.00 0.00 51 1020.1
20260906174403 74 173 5.0 11.0 0.00 0.00 0.00 50 1020.1
20260906174203 74 175 4.0 11.0 0.00 0.00 0.00 50 1020.0
20260906174024 74 178 4.0 9.0 0.00 0.00 0.00 51 1020.0
20260906173803 74 182 4.0 9.0 0.00 0.00 0.00 51 1020.0
20260906173603 74 183 4.0 11.0 0.00 0.00 0.00 57 1020.1
20260906173403 74 183 5.0 13.0 0.00 0.00 0.00 57 1020.1
20260906173203 73 179 5.0 13.0 0.00 0.00 0.00 57 1020.2
20260906173024 73 178 4.0 13.0 0.00 0.00 0.00 56 1020.2
20260906172824 73 177 3.0 13.0 0.00 0.00 0.00 56 1020.4
20260906172603 73 176 3.0 13.0 0.00 0.00 0.00 56 1020.4
20260906172403 73 173 3.0 7.0 0.00 0.00 0.00 57 1020.4
20260906172203 73 175 3.0 7.0 0.00 0.00 0.00 57 1020.4
20260906172003 73 174 4.0 8.0 0.00 0.00 0.00 57 1020.4
20260906171803 73 176 5.0 11.0 0.00 0.00 0.00 57 1020.5
20260906171603 73 174 5.0 11.0 0.00 0.00 0.00 58 1020.5
20260906171403 73 174 4.0 11.0 0.00 0.00 0.00 57 1020.5
20260906171203 73 175 4.0 11.0 0.00 0.00 0.00 57 1020.5
20260906171003 73 177 4.0 11.0 0.00 0.00 0.00 57 1020.5
20260906170803 73 176 4.0 9.0 0.00 0.00 0.00 59 1020.5
20260906170603 73 179 4.0 10.0 0.00 0.00 0.00 61 1020.4
20260906170403 72 178 4.0 10.0 0.00 0.00 0.00 60 1020.4
20260906170203 72 181 4.0 10.0 0.00 0.00 0.00 59 1020.4
20260906170003 72 177 5.0 11.0 0.00 0.00 0.00 58 1020.3
20260906165803 72 175 5.0 11.0 0.00 0.00 0.00 58 1020.3
20260906165603 72 175 5.0 11.0 0.00 0.00 0.00 59 1020.3
20260906165403 72 176 5.0 11.0 0.00 0.00 0.00 58 1020.3
20260906165224 72 175 5.0 11.0 0.00 0.00 0.00 58 1020.4
20260906165024 72 178 4.0 10.0 0.00 0.00 0.00 58 1020.4
20260906164803 72 182 4.0 12.0 0.00 0.00 0.00 59 1020.4
20260906164603 72 183 4.0 12.0 0.00 0.00 0.00 57 1020.5
20260906164424 72 182 4.0 12.0 0.00 0.00 0.00 60 1020.5
20260906164203 72 179 4.0 12.0 0.00 0.00 0.00 60 1020.5
20260906164003 72 179 4.0 12.0 0.00 0.00 0.00 59 1020.5
20260906163824 72 176 4.0 12.0 0.00 0.00 0.00 59 1020.5
20260906163603 72 175 4.0 9.0 0.00 0.00 0.00 60 1020.5
20260906163403 72 175 3.0 9.0 0.00 0.00 0.00 59 1020.5
20260906163203 72 177 3.0 8.0 0.00 0.00 0.00 59 1020.5
20260906163024 72 177 3.0 8.0 0.00 0.00 0.00 60 1020.6
20260906162803 72 177 3.0 9.0 0.00 0.00 0.00 59 1020.5
20260906162603 72 176 3.0 9.0 0.00 0.00 0.00 59 1020.5
20260906162424 72 177 3.0 9.0 0.00 0.00 0.00 58 1020.5
20260906162203 72 177 4.0 9.0 0.00 0.00 0.00 61 1020.5
20260906162003 72 176 4.0 9.0 0.00 0.00 0.00 60 1020.5
20260906161803 72 173 4.0 11.0 0.00 0.00 0.00 60 1020.5
20260906161603 72 174 4.0 11.0 0.00 0.00 0.00 60 1020.5
20260906161403 72 174 4.0 11.0 0.00 0.00 0.00 60 1020.5
20260906161204 72 175 4.0 11.0 0.00 0.00 0.00 61 1020.5
20260906161003 72 174 4.0 11.0 0.00 0.00 0.00 62 1020.6
20260906160824 72 175 4.0 12.0 0.00 0.00 0.00 61 1020.6
20260906160624 72 175 5.0 12.0 0.00 0.00 0.00 63 1020.6
20260906160424 71 175 5.0 12.0 0.00 0.00 0.00 63 1020.7
20260906160224 71 175 5.0 12.0 0.00 0.00 0.00 65 1020.7
20260906160024 70 178 6.0 12.0 0.00 0.00 0.00 65 1020.7
20260906155824 70 179 5.0 12.0 0.00 0.00 0.00 63 1020.7
20260906155603 70 181 5.0 12.0 0.00 0.00 0.00 65 1020.7
20260906155403 70 181 5.0 12.0 0.00 0.00 0.00 66 1020.7
20260906155203 70 183 4.0 12.0 0.00 0.00 0.00 65 1020.7
20260906155024 70 183 4.0 10.0 0.00 0.00 0.00 65 1020.7
20260906154803 70 183 3.0 9.0 0.00 0.00 0.00 66 1020.7
20260906154603 70 182 3.0 9.0 0.00 0.00 0.00 65 1020.6
20260906154403 70 184 3.0 7.0 0.00 0.00 0.00 68 1020.6
20260906154203 70 178 4.0 12.0 0.00 0.00 0.00 67 1020.5
20260906154003 70 177 4.0 12.0 0.00 0.00 0.00 68 1020.6
20260906153803 69 177 4.0 12.0 0.00 0.00 0.00 68 1020.6
20260906153603 69 176 4.0 12.0 0.00 0.00 0.00 68 1020.6
20260906153403 69 175 4.0 12.0 0.00 0.00 0.00 68 1020.5
20260906153203 69 178 3.0 11.0 0.00 0.00 0.00 68 1020.6
20260906153024 69 180 3.0 7.0 0.00 0.00 0.00 69 1020.5
20260906152803 69 179 3.0 7.0 0.00 0.00 0.00 70 1020.5
20260906152603 69 180 4.0 7.0 0.00 0.00 0.00 69 1020.4
20260906152403 69 181 3.0 7.0 0.00 0.00 0.00 69 1020.4
20260906152224 68 180 3.0 7.0 0.00 0.00 0.00 69 1020.4
20260906152003 68 179 2.0 7.0 0.00 0.00 0.00 70 1020.4
20260906151803 68 181 2.0 7.0 0.00 0.00 0.00 70 1020.4
20260906151624 68 182 2.0 7.0 0.00 0.00 0.00 70 1020.3
20260906151403 68 183 2.0 10.0 0.00 0.00 0.00 71 1020.4
20260906151203 68 183 2.0 10.0 0.00 0.00 0.00 70 1020.4
20260906151003 68 186 3.0 10.0 0.00 0.00 0.00 71 1020.4
20260906150803 68 184 3.0 10.0 0.00 0.00 0.00 70 1020.4
20260906150603 68 185 2.0 9.0 0.00 0.00 0.00 71 1020.4
20260906150403 68 182 2.0 9.0 0.00 0.00 0.00 71 1020.4
20260906150203 68 183 3.0 7.0 0.00 0.00 0.00 72 1020.4
20260906150004 68 181 3.0 7.0 0.00 0.00 0.00 73 1020.4
20260906145803 67 180 3.0 7.0 0.00 0.00 0.00 73 1020.4
20260906145603 67 179 3.0 7.0 0.00 0.00 0.00 72 1020.5
20260906145403 67 179 3.0 7.0 0.00 0.00 0.00 72 1020.5
20260906145203 67 180 3.0 7.0 0.00 0.00 0.00 72 1020.5
20260906145003 67 181 4.0 9.0 0.00 0.00 0.00 71 1020.5
20260906144803 67 180 4.0 9.0 0.00 0.00 0.00 72 1020.5
20260906144603 67 181 4.0 9.0 0.00 0.00 0.00 72 1020.5
20260906144403 67 182 4.0 9.0 0.00 0.00 0.00 73 1020.5
20260906144203 67 180 3.0 9.0 0.00 0.00 0.00 73 1020.5
20260906144003 67 176 2.0 9.0 0.00 0.00 0.00 73 1020.5
20260906143803 67 178 2.0 6.0 0.00 0.00 0.00 73 1020.4
20260906143603 67 178 2.0 8.0 0.00 0.00 0.00 73 1020.4
20260906143424 67 176 2.0 8.0 0.00 0.00 0.00 73 1020.4
20260906143203 66 178 2.0 8.0 0.00 0.00 0.00 74 1020.4
20260906143003 66 180 2.0 8.0 0.00 0.00 0.00 73 1020.4
20260906142803 66 177 1.0 8.0 0.00 0.00 0.00 74 1020.4
20260906142603 66 172 1.0 5.0 0.00 0.00 0.00 74 1020.4
20260906142403 66 175 2.0 6.0 0.00 0.00 0.00 74 1020.4
20260906142203 66 176 1.0 8.0 0.00 0.00 0.00 75 1020.4
20260906142003 66 178 1.0 8.0 0.00 0.00 0.00 75 1020.4
20260906141803 66 183 2.0 8.0 0.00 0.00 0.00 75 1020.4
20260906141603 65 184 2.0 8.0 0.00 0.00 0.00 75 1020.4
20260906141403 65 185 2.0 8.0 0.00 0.00 0.00 75 1020.4
20260906141203 65 185 1.0 8.0 0.00 0.00 0.00 75 1020.4
20260906141003 65 185 1.0 7.0 0.00 0.00 0.00 75 1020.4
20260906140804 65 185 1.0 7.0 0.00 0.00 0.00 76 1020.4
20260906140603 65 186 1.0 7.0 0.00 0.00 0.00 76 1020.3
20260906140403 65 183 1.0 7.0 0.00 0.00 0.00 76 1020.3
20260906140203 65 182 2.0 7.0 0.00 0.00 0.00 77 1020.3
20260906140003 64 180 3.0 7.0 0.00 0.00 0.00 77 1020.3
20260906135803 64 179 3.0 8.0 0.00 0.00 0.00 77 1020.2
20260906135603 64 178 3.0 8.0 0.00 0.00 0.00 77 1020.2
20260906135424 64 175 3.0 8.0 0.00 0.00 0.00 77 1020.2
20260906135203 64 176 4.0 8.0 0.00 0.00 0.00 77 1020.2
20260906135003 64 179 4.0 8.0 0.00 0.00 0.00 77 1020.3
20260906134803 63 181 3.0 8.0 0.00 0.00 0.00 77 1020.2
20260906134603 63 182 3.0 8.0 0.00 0.00 0.00 78 1020.3
20260906134403 63 186 3.0 8.0 0.00 0.00 0.00 77 1020.3
20260906134203 63 186 3.0 8.0 0.00 0.00 0.00 77 1020.3
20260906134003 63 184 3.0 8.0 0.00 0.00 0.00 78 1020.3
20260906133803 63 184 3.0 8.0 0.00 0.00 0.00 78 1020.3
20260906133624 63 184 3.0 7.0 0.00 0.00 0.00 78 1020.3
20260906133424 63 185 3.0 7.0 0.00 0.00 0.00 78 1020.3
20260906133203 62 185 3.0 7.0 0.00 0.00 0.00 78 1020.2
20260906133003 62 186 2.0 7.0 0.00 0.00 0.00 78 1020.3
20260906132803 62 186 2.0 7.0 0.00 0.00 0.00 78 1020.3
20260906132624 62 186 2.0 7.0 0.00 0.00 0.00 78 1020.3
20260906132424 62 185 2.0 9.0 0.00 0.00 0.00 79 1020.2
20260906132203 62 185 2.0 9.0 0.00 0.00 0.00 79 1020.2
20260906132003 62 183 3.0 9.0 0.00 0.00 0.00 79 1020.2
20260906131803 62 184 3.0 9.0 0.00 0.00 0.00 79 1020.2
20260906131603 61 185 3.0 9.0 0.00 0.00 0.00 79 1020.3
20260906131403 61 183 3.0 7.0 0.00 0.00 0.00 79 1020.3
20260906131224 61 182 3.0 7.0 0.00 0.00 0.00 79 1020.2
20260906131003 61 182 2.0 7.0 0.00 0.00 0.00 79 1020.2
20260906130803 61 179 2.0 6.0 0.00 0.00 0.00 79 1020.2
20260906130603 61 173 2.0 5.0 0.00 0.00 0.00 79 1020.0
20260906130403 61 172 2.0 6.0 0.00 0.00 0.00 79 1020.0
20260906130203 61 178 3.0 8.0 0.00 0.00 0.00 79 1020.0
20260906130003 61 180 2.0 8.0 0.00 0.00 0.00 79 1020.0
20260906125803 61 180 3.0 8.0 0.00 0.00 0.00 79 1020.0
20260906125624 61 184 3.0 9.0 0.00 0.00 0.00 79 1020.0
20260906125403 60 187 2.0 9.0 0.00 0.00 0.00 79 1020.0
20260906125203 60 184 2.0 9.0 0.00 0.00 0.00 79 1020.0
20260906125003 60 183 2.0 9.0 0.00 0.00 0.00 79 1019.9
20260906124824 60 184 1.0 9.0 0.00 0.00 0.00 79 1019.9
20260906124603 60 185 1.0 7.0 0.00 0.00 0.00 79 1019.9
20260906124403 60 185 1.0 7.0 0.00 0.00 0.00 79 1019.8
20260906124203 60 186 1.0 7.0 0.00 0.00 0.00 79 1019.8
20260906124003 60 187 1.0 7.0 0.00 0.00 0.00 80 1019.8
20260906123803 60 187 1.0 7.0 0.00 0.00 0.00 80 1019.7
20260906123603 60 186 0.0 7.0 0.00 0.00 0.00 80 1019.7
20260906123403 60 189 0.0 5.0 0.00 0.00 0.00 79 1019.7
20260906123203 59 190 0.0 5.0 0.00 0.00 0.00 80 1019.7
20260906123003 59 0 0.0 0.0 0.00 0.00 0.00 80 1019.8
20260906122803 59 0 0.0 0.0 0.00 0.00 0.00 80 1019.8
20260906122624 59 183 0.0 3.0 0.00 0.00 0.00 80 1019.8
20260906122403 59 183 0.0 3.0 0.00 0.00 0.00 80 1019.8
20260906122203 59 183 0.0 3.0 0.00 0.00 0.00 80 1019.7
20260906122024 59 183 0.0 3.0 0.00 0.00 0.00 80 1019.7
20260906121803 59 183 0.0 3.0 0.00 0.00 0.00 80 1019.7
20260906121624 59 0 0.0 0.0 0.00 0.00 0.00 79 1019.6
20260906121403 59 0 0.0 0.0 0.00 0.00 0.00 80 1019.6
20260906121203 59 0 0.0 0.0 0.00 0.00 0.00 80 1019.6
20260906121003 58 0 0.0 0.0 0.00 0.00 0.00 80 1019.6
20260906120803 58 192 0.0 3.0 0.00 0.00 0.00 79 1019.5
20260906120624 58 192 0.0 3.0 0.00 0.00 0.00 79 1019.5
20260906120424 58 192 0.0 3.0 0.00 0.00 0.00 79 1019.4
20260906120224 58 192 0.0 3.0 0.00 0.00 0.00 80 1019.4
20260906120024 58 193 0.0 4.0 0.00 0.00 0.00 80 1019.4
20260906115803 58 194 0.0 4.0 0.00 0.00 0.00 80 1019.5
20260906115603 58 194 0.0 4.0 0.00 0.00 0.00 80 1019.5
20260906115403 58 189 0.0 4.0 0.00 0.00 0.00 80 1019.4
20260906115203 58 189 0.0 4.0 0.00 0.00 0.00 80 1019.4
20260906115003 58 175 0.0 3.0 0.00 0.00 0.00 80 1019.4
20260906114824 58 175 0.0 3.0 0.00 0.00 0.00 80 1019.4
20260906114603 58 175 0.0 3.0 0.00 0.00 0.00 80 1019.2
20260906114403 58 0 0.0 0.0 0.00 0.00 0.00 80 1019.2
20260906114203 58 0 0.0 0.0 0.00 0.00 0.00 80 1019.2
20260906114003 58 0 0.0 0.0 0.00 0.00 0.00 80 1019.2
20260906113824 58 0 0.0 0.0 0.00 0.00 0.00 80 1019.2
20260906113624 58 0 0.0 0.0 0.00 0.00 0.00 80 1019.1
20260906113403 58 0 0.0 0.0 0.00 0.00 0.00 80 1019.1
20260906113203 58 0 0.0 0.0 0.00 0.00 0.00 80 1019.1
20260906113003 58 0 0.0 0.0 0.00 0.00 0.00 80 1019.1
20260906112803 58 0 0.0 0.0 0.00 0.00 0.00 80 1019.1
20260906112603 58 0 0.0 0.0 0.00 0.00 0.00 80 1019.0
20260906112403 57 0 0.0 0.0 0.00 0.00 0.00 80 1019.0
20260906112203 58 0 0.0 0.0 0.00 0.00 0.00 80 1019.0
20260906112003 57 0 0.0 0.0 0.00 0.00 0.00 80 1019.0
20260906111803 57 0 0.0 0.0 0.00 0.00 0.00 80 1019.0
20260906111603 58 0 0.0 0.0 0.00 0.00 0.00 79 1019.0
20260906111424 58 0 0.0 0.0 0.00 0.00 0.00 79 1019.0
20260906111203 58 0 0.0 0.0 0.00 0.00 0.00 79 1019.1
20260906111003 57 0 0.0 0.0 0.00 0.00 0.00 79 1019.0
20260906110803 57 0 0.0 0.0 0.00 0.00 0.00 79 1019.0
20260906110624 57 0 0.0 0.0 0.00 0.00 0.00 79 1019.0
20260906110424 57 0 0.0 0.0 0.00 0.00 0.00 79 1019.0
20260906110203 58 0 0.0 0.0 0.00 0.00 0.00 79 1018.9
20260906110003 58 0 0.0 0.0 0.00 0.00 0.00 79 1018.9
20260906105803 58 0 0.0 0.0 0.00 0.00 0.00 79 1018.9
20260906105603 57 0 0.0 0.0 0.00 0.00 0.00 79 1018.9
20260906105403 58 0 0.0 0.0 0.00 0.00 0.00 79 1018.8
20260906105203 58 0 0.0 0.0 0.00 0.00 0.00 79 1018.8
20260906105003 58 0 0.0 0.0 0.00 0.00 0.00 79 1018.7
20260906104824 58 0 0.0 0.0 0.00 0.00 0.00 79 1018.7
20260906104603 58 0 0.0 0.0 0.00 0.00 0.00 79 1018.7
20260906104424 58 0 0.0 0.0 0.00 0.00 0.00 79 1018.7
20260906104224 58 0 0.0 0.0 0.00 0.00 0.00 79 1018.7
20260906104024 58 0 0.0 0.0 0.00 0.00 0.00 79 1018.6
20260906103824 58 0 0.0 0.0 0.00 0.00 0.00 79 1018.6
20260906103603 58 0 0.0 0.0 0.00 0.00 0.00 79 1018.6
20260906103403 58 0 0.0 0.0 0.00 0.00 0.00 79 1018.5
20260906103224 58 0 0.0 0.0 0.00 0.00 0.00 79 1018.6
20260906103003 58 0 0.0 0.0 0.00 0.00 0.00 79 1018.5
20260906102824 58 0 0.0 0.0 0.00 0.00 0.00 79 1018.5
20260906102603 58 0 0.0 0.0 0.00 0.00 0.00 79 1018.5
20260906102403 58 0 0.0 0.0 0.00 0.00 0.00 79 1018.6
20260906102203 58 0 0.0 0.0 0.00 0.00 0.00 79 1018.5
20260906102003 58 0 0.0 0.0 0.00 0.00 0.00 79 1018.6
20260906101803 58 0 0.0 0.0 0.00 0.00 0.00 79 1018.6
20260906101603 58 0 0.0 0.0 0.00 0.00 0.00 79 1018.7
20260906101403 58 0 0.0 0.0 0.00 0.00 0.00 78 1018.6
20260906101203 58 0 0.0 0.0 0.00 0.00 0.00 79 1018.6
20260906101003 58 203 0.0 1.0 0.00 0.00 0.00 78 1018.6
20260906100803 58 203 0.0 1.0 0.00 0.00 0.00 78 1018.6
20260906100603 58 203 0.0 1.0 0.00 0.00 0.00 78 1018.6
20260906100403 58 203 0.0 1.0 0.00 0.00 0.00 78 1018.5
20260906100203 58 203 0.0 1.0 0.00 0.00 0.00 78 1018.6
20260906100003 58 0 0.0 0.0 0.00 0.00 0.00 78 1018.6
20260906095803 58 0 0.0 0.0 0.00 0.00 0.00 78 1018.5
20260906095603 58 0 0.0 0.0 0.00 0.00 0.00 78 1018.5
20260906095403 58 0 0.0 0.0 0.00 0.00 0.00 78 1018.5
20260906095203 58 0 0.0 0.0 0.00 0.00 0.00 78 1018.5
20260906095003 59 0 0.0 0.0 0.00 0.00 0.00 78 1018.4
20260906094824 59 0 0.0 0.0 0.00 0.00 0.00 78 1018.4
20260906094603 59 0 0.0 0.0 0.00 0.00 0.00 78 1018.5
20260906094403 59 0 0.0 0.0 0.00 0.00 0.00 78 1018.5
20260906094203 59 0 0.0 0.0 0.00 0.00 0.00 78 1018.5
20260906094003 59 0 0.0 0.0 0.00 0.00 0.00 78 1018.4
20260906093803 59 0 0.0 0.0 0.00 0.00 0.00 78 1018.4
20260906093603 59 190 0.0 4.0 0.00 0.00 0.00 78 1018.4
20260906093403 59 191 0.0 4.0 0.00 0.00 0.00 78 1018.3
20260906093203 59 191 0.0 4.0 0.00 0.00 0.00 78 1018.3
20260906093003 59 191 0.0 4.0 0.00 0.00 0.00 78 1018.2
20260906092803 59 191 0.0 4.0 0.00 0.00 0.00 78 1018.2
20260906092603 59 191 0.0 4.0 0.00 0.00 0.00 78 1018.2
20260906092403 59 191 0.0 3.0 0.00 0.00 0.00 78 1018.2
20260906092203 59 192 0.0 3.0 0.00 0.00 0.00 78 1018.3
20260906092003 59 200 0.0 1.0 0.00 0.00 0.00 78 1018.3
20260906091803 60 200 0.0 1.0 0.00 0.00 0.00 78 1018.3
20260906091603 60 200 0.0 1.0 0.00 0.00 0.00 78 1018.4
20260906091403 60 200 0.0 1.0 0.00 0.00 0.00 78 1018.4
20260906091203 60 192 0.0 1.0 0.00 0.00 0.00 78 1018.4
20260906091024 60 0 0.0 0.0 0.00 0.00 0.00 78 1018.4
20260906090803 60 0 0.0 0.0 0.00 0.00 0.00 78 1018.4
20260906090603 60 0 0.0 0.0 0.00 0.00 0.00 78 1018.5
20260906090403 60 0 0.0 0.0 0.00 0.00 0.00 78 1018.5
20260906090203 60 0 0.0 0.0 0.00 0.00 0.00 78 1018.4
20260906090004 60 0 0.0 0.0 0.00 0.00 0.00 78 1018.4
20260906085803 60 193 0.0 2.0 0.00 0.00 0.00 78 1018.3
20260906085603 60 190 1.0 5.0 0.00 0.00 0.00 78 1018.4
20260906085403 60 188 1.0 5.0 0.00 0.00 0.00 78 1018.4
20260906085203 60 187 2.0 5.0 0.00 0.00 0.00 78 1018.4
20260906085003 60 185 2.0 5.0 0.00 0.00 0.00 78 1018.4
20260906084803 60 183 3.0 7.0 0.00 0.00 0.00 78 1018.3
20260906084603 60 180 3.0 7.0 0.00 0.00 0.00 78 1018.3
20260906084403 60 179 2.0 7.0 0.00 0.00 0.00 78 1018.3
20260906084203 60 177 2.0 7.0 0.00 0.00 0.00 78 1018.3
20260906084003 60 178 1.0 7.0 0.00 0.00 0.00 78 1018.2
20260906083803 60 177 1.0 4.0 0.00 0.00 0.00 78 1018.2
20260906083603 61 191 0.0 4.0 0.00 0.00 0.00 78 1018.3
20260906083403 61 193 0.0 4.0 0.00 0.00 0.00 78 1018.3
20260906083224 61 193 0.0 4.0 0.00 0.00 0.00 78 1018.3
20260906083003 61 0 0.0 0.0 0.00 0.00 0.00 79 1018.2
20260906082803 61 0 0.0 0.0 0.00 0.00 0.00 78 1018.3
20260906082603 61 0 0.0 0.0 0.00 0.00 0.00 79 1018.2
20260906082403 61 0 0.0 0.0 0.00 0.00 0.00 79 1018.2
20260906082203 61 0 0.0 0.0 0.00 0.00 0.00 79 1018.2
20260906082024 61 0 0.0 0.0 0.00 0.00 0.00 79 1018.2
20260906081803 61 0 0.0 0.0 0.00 0.00 0.00 79 1018.2
20260906081603 61 190 0.0 4.0 0.00 0.00 0.00 78 1018.2
20260906081403 61 190 0.0 4.0 0.00 0.00 0.00 78 1018.2
20260906081203 61 190 0.0 4.0 0.00 0.00 0.00 78 1018.2
20260906081024 62 190 0.0 4.0 0.00 0.00 0.00 78 1018.2
20260906080824 62 190 0.0 4.0 0.00 0.00 0.00 78 1018.2
20260906080603 62 0 0.0 0.0 0.00 0.00 0.00 78 1018.2
20260906080403 62 0 0.0 0.0 0.00 0.00 0.00 78 1018.2
20260906080224 62 0 0.0 0.0 0.00 0.00 0.00 78 1018.2
20260906080003 62 0 0.0 0.0 0.00 0.00 0.00 78 1018.1
20260906075803 62 0 0.0 0.0 0.00 0.00 0.00 78 1018.2
20260906075603 62 0 0.0 0.0 0.00 0.00 0.00 78 1018.1
20260906075403 62 0 0.0 0.0 0.00 0.00 0.00 78 1018.2
20260906075203 62 0 0.0 0.0 0.00 0.00 0.00 78 1018.2
20260906075025 62 0 0.0 0.0 0.00 0.01 0.00 78 1018.2
20260906074803 62 0 0.0 0.0 0.00 0.01 0.00 78 1018.2
20260906074624 62 0 0.0 0.0 0.00 0.01 0.00 78 1018.2
20260906074403 62 0 0.0 0.0 0.00 0.01 0.00 78 1018.1
20260906074203 63 0 0.0 0.0 0.00 0.01 0.00 78 1018.1
20260906074003 63 0 0.0 0.0 0.00 0.01 0.00 78 1018.1
20260906073803 63 0 0.0 0.0 0.00 0.01 0.00 77 1018.1
20260906073603 63 0 0.0 0.0 0.00 0.01 0.00 78 1018.1
20260906073403 63 0 0.0 0.0 0.00 0.01 0.00 78 1018.1
20260906073203 63 0 0.0 0.0 0.00 0.01 0.00 78 1018.0
20260906073003 63 0 0.0 0.0 0.00 0.01 0.00 78 1017.9
20260906072803 63 0 0.0 0.0 0.00 0.01 0.00 78 1017.9
20260906072603 63 0 0.0 0.0 0.00 0.01 0.00 78 1017.9
20260906072403 63 0 0.0 0.0 0.00 0.01 0.00 78 1017.9
20260906072224 63 0 0.0 0.0 0.00 0.01 0.00 78 1018.0
20260906072003 63 0 0.0 0.0 0.00 0.01 0.00 78 1018.0
20260906071803 63 0 0.0 0.0 0.00 0.01 0.00 78 1018.0
20260906071624 63 0 0.0 0.0 0.00 0.01 0.00 78 1018.0
20260906071424 63 0 0.0 0.0 0.00 0.01 0.00 78 1018.0
20260906071203 63 0 0.0 0.0 0.00 0.01 0.00 78 1018.0
20260906071003 63 0 0.0 0.0 0.00 0.01 0.00 78 1018.0
20260906070803 63 0 0.0 0.0 0.00 0.01 0.00 78 1018.0
20260906070603 63 0 0.0 0.0 0.00 0.01 0.00 78 1018.0
20260906070424 63 0 0.0 0.0 0.00 0.01 0.00 78 1018.0
20260906070203 63 0 0.0 0.0 0.00 0.01 0.00 78 1018.1
20260906070003 63 0 0.0 0.0 0.00 0.01 0.00 78 1018.0
20260906065824 63 0 0.0 0.0 0.00 0.01 0.00 78 1018.0
20260906065624 63 0 0.0 0.0 0.00 0.01 0.00 78 1018.0
20260906065403 64 0 0.0 0.0 0.00 0.01 0.00 78 1018.0
20260906065203 64 0 0.0 0.0 0.00 0.01 0.00 78 1018.0
20260906065003 64 0 0.0 0.0 0.00 0.01 0.00 78 1018.1
20260906064803 64 0 0.0 0.0 0.00 0.02 0.00 78 1018.1
20260906064603 64 0 0.0 0.0 0.00 0.02 0.00 78 1018.2
20260906064403 64 0 0.0 0.0 0.00 0.03 0.00 78 1018.2
20260906064203 64 0 0.0 0.0 0.00 0.03 0.00 77 1018.2
20260906064024 64 0 0.0 0.0 0.00 0.03 0.00 77 1018.2
20260906063803 64 0 0.0 0.0 0.00 0.03 0.00 77 1018.1
20260906063603 64 0 0.0 0.0 0.00 0.03 0.00 77 1018.2
20260906063403 64 0 0.0 0.0 0.00 0.03 0.00 77 1018.2
20260906063203 64 0 0.0 0.0 0.00 0.03 0.00 77 1018.1
20260906063003 64 0 0.0 0.0 0.00 0.03 0.00 77 1018.1
20260906062824 64 0 0.0 0.0 0.00 0.03 0.00 77 1018.2
20260906062603 64 0 0.0 0.0 0.00 0.03 0.00 77 1018.1
20260906062403 64 0 0.0 0.0 0.00 0.03 0.00 78 1018.1
20260906062224 64 0 0.0 0.0 0.00 0.03 0.00 77 1018.1
20260906062003 64 0 0.0 0.0 0.00 0.03 0.00 77 1018.2
20260906061803 64 0 0.0 0.0 0.00 0.03 0.00 77 1018.1
20260906061603 64 0 0.0 0.0 0.00 0.03 0.00 77 1018.2
20260906061403 64 0 0.0 0.0 0.00 0.04 0.00 77 1018.1
20260906061203 64 0 0.0 0.0 0.00 0.04 0.00 77 1018.1
20260906061003 64 0 0.0 0.0 0.00 0.04 0.00 77 1018.1
20260906060803 64 0 0.0 0.0 0.00 0.04 0.00 77 1018.1
20260906060624 64 0 0.0 0.0 0.00 0.05 0.00 77 1018.0
20260906060403 64 0 0.0 0.0 0.00 0.05 0.00 77 1018.0
20260906060203 64 0 0.0 0.0 0.00 0.05 0.00 76 1017.9
20260906060004 64 0 0.0 0.0 0.00 0.05 0.00 76 1017.9
20260906055803 64 0 0.0 0.0 0.00 0.05 0.00 76 1017.9
20260906055603 65 0 0.0 0.0 0.00 0.05 0.00 76 1017.9
20260906055403 65 0 0.0 0.0 0.00 0.05 0.00 76 1017.8
20260906055204 65 0 0.0 0.0 0.00 0.05 0.00 76 1017.8
20260906055003 65 0 0.0 0.0 0.00 0.05 0.00 76 1017.8
20260906054803 65 0 0.0 0.0 0.00 0.05 0.00 76 1017.8
20260906054603 65 0 0.0 0.0 0.00 0.05 0.00 76 1017.8
20260906054403 65 0 0.0 0.0 0.00 0.05 0.00 76 1017.8
20260906054203 65 0 0.0 0.0 0.00 0.05 0.00 76 1017.9
20260906054003 65 0 0.0 0.0 0.00 0.05 0.00 76 1017.8
20260906053803 65 0 0.0 0.0 0.00 0.05 0.00 76 1017.8
20260906053603 65 181 0.0 3.0 0.00 0.05 0.00 76 1017.8
20260906053403 65 184 0.0 3.0 0.00 0.05 0.00 76 1017.8
20260906053203 65 184 0.0 3.0 0.00 0.05 0.00 76 1017.8
20260906053003 65 184 0.0 3.0 0.00 0.05 0.00 76 1017.8
20260906052824 65 186 0.0 3.0 0.00 0.05 0.00 76 1017.8
20260906052624 65 189 0.0 3.0 0.00 0.05 0.00 76 1017.8
20260906052403 65 191 0.0 3.0 0.00 0.05 0.00 76 1017.8
20260906052224 65 191 0.0 3.0 0.00 0.05 0.00 76 1017.7
20260906052003 65 180 1.0 5.0 0.00 0.05 0.00 76 1017.7
20260906051824 65 182 1.0 5.0 0.00 0.06 0.00 76 1017.7
20260906051603 65 182 1.0 5.0 0.00 0.06 0.00 76 1017.7
20260906051403 65 182 2.0 5.0 0.00 0.06 0.00 76 1017.7
20260906051224 65 180 2.0 5.0 0.00 0.06 0.00 75 1017.7
20260906051003 65 180 2.0 6.0 0.00 0.06 0.00 75 1017.6
20260906050824 65 178 2.0 6.0 0.00 0.06 0.00 75 1017.6
20260906050603 65 177 1.0 6.0 0.00 0.06 0.00 76 1017.6
20260906050424 66 176 1.0 6.0 0.00 0.06 0.00 76 1017.5
20260906050203 66 177 1.0 6.0 0.00 0.06 0.00 76 1017.5
20260906050003 66 173 1.0 5.0 0.00 0.07 0.00 76 1017.5
20260906045824 66 178 1.0 5.0 0.00 0.08 0.00 76 1017.5
20260906045603 66 180 1.0 6.0 0.00 0.10 0.00 76 1017.5
20260906045403 66 180 1.0 6.0 0.00 0.12 0.00 76 1017.5
20260906045224 66 177 1.0 7.0 0.00 0.13 0.00 76 1017.5
20260906045003 66 179 2.0 9.0 0.00 0.14 0.00 76 1017.5
20260906044803 66 178 2.0 9.0 0.00 0.14 0.00 76 1017.4
20260906044603 66 179 3.0 9.0 0.00 0.16 0.00 76 1017.4
20260906044403 66 180 4.0 11.0 0.00 0.16 0.00 76 1017.3
20260906044224 66 180 4.0 11.0 0.00 0.16 0.00 76 1017.3
20260906044024 66 182 4.0 11.0 0.00 0.16 0.00 76 1017.3
20260906043803 66 184 4.0 11.0 0.00 0.16 0.00 76 1017.3
20260906043603 66 185 3.0 11.0 0.00 0.16 0.00 76 1017.3
20260906043403 66 183 3.0 10.0 0.00 0.16 0.00 76 1017.3
20260906043203 66 185 3.0 10.0 0.00 0.17 0.00 76 1017.3
20260906043024 66 184 3.0 7.0 0.00 0.17 0.00 76 1017.3
20260906042803 66 182 3.0 7.0 0.00 0.18 0.00 76 1017.4
20260906042624 66 182 3.0 7.0 0.00 0.18 0.00 76 1017.4
20260906042403 66 182 3.0 6.0 0.00 0.18 0.00 76 1017.4
20260906042203 66 182 3.0 6.0 0.00 0.18 0.00 76 1017.4
20260906042003 66 180 3.0 6.0 0.00 0.18 0.00 76 1017.5
20260906041824 66 177 3.0 8.0 0.00 0.18 0.00 76 1017.5
20260906041603 66 175 3.0 8.0 0.00 0.18 0.00 76 1017.5
20260906041424 67 178 3.0 8.0 0.00 0.18 0.00 76 1017.5
20260906041203 67 179 3.0 8.0 0.00 0.18 0.00 77 1017.5
20260906041024 67 181 3.0 8.0 0.00 0.18 0.00 76 1017.5
20260906040803 67 184 3.0 8.0 0.00 0.18 0.00 77 1017.4
20260906040624 67 183 4.0 8.0 0.00 0.18 0.00 77 1017.4
20260906040424 67 181 3.0 8.0 0.00 0.18 0.00 76 1017.4
20260906040203 67 180 2.0 8.0 0.00 0.18 0.00 77 1017.4
20260906040004 67 178 2.0 8.0 0.00 0.18 0.00 77 1017.3
20260906035803 67 180 2.0 8.0 0.00 0.18 0.18 77 1017.2
20260906035603 67 184 2.0 8.0 0.00 0.18 0.18 77 1017.2
20260906035403 67 183 2.0 8.0 0.00 0.18 0.18 77 1017.2
20260906035203 67 173 2.0 8.0 0.00 0.18 0.18 77 1017.2
20260906035024 67 172 3.0 8.0 0.00 0.18 0.18 77 1017.2
20260906034824 67 170 3.0 8.0 0.00 0.18 0.18 77 1017.2
20260906034624 67 166 3.0 7.0 0.00 0.18 0.18 78 1017.3
20260906034403 67 168 3.0 7.0 0.00 0.18 0.18 78 1017.2
20260906034203 67 173 2.0 7.0 0.00 0.18 0.18 78 1017.2
20260906034003 67 173 2.0 5.0 0.00 0.18 0.18 78 1017.2
20260906033803 67 177 2.0 5.0 0.00 0.18 0.18 79 1017.1
20260906033603 67 178 2.0 5.0 0.00 0.18 0.18 79 1017.2
20260906033424 67 176 2.0 5.0 0.00 0.18 0.18 79 1017.1
20260906033203 67 177 2.0 5.0 0.00 0.18 0.18 79 1017.0
20260906033003 67 179 1.0 4.0 0.00 0.18 0.18 80 1017.1
20260906032803 67 175 1.0 4.0 0.00 0.18 0.18 80 1017.1
20260906032603 67 175 1.0 3.0 0.00 0.18 0.18 80 1017.1
20260906032424 67 175 1.0 3.0 0.00 0.18 0.18 80 1017.1
20260906032203 67 172 0.0 3.0 0.00 0.18 0.18 80 1017.0
20260906032003 67 163 0.0 3.0 0.00 0.18 0.18 80 1017.0
20260906031803 67 0 0.0 0.0 0.00 0.18 0.18 80 1017.0
20260906031603 67 0 0.0 0.0 0.00 0.18 0.18 80 1017.0
20260906031403 68 0 0.0 0.0 0.00 0.18 0.18 80 1017.0
20260906031203 68 0 0.0 0.0 0.00 0.18 0.18 80 1017.0
20260906031003 68 0 0.0 0.0 0.00 0.18 0.18 80 1017.0
20260906030803 68 0 0.0 0.0 0.00 0.18 0.18 81 1017.0
20260906030603 68 0 0.0 0.0 0.00 0.18 0.18 81 1016.9
20260906030403 68 0 0.0 0.0 0.00 0.18 0.18 81 1016.9
20260906030203 68 0 0.0 0.0 0.00 0.18 0.18 81 1016.9
20260906030003 68 0 0.0 0.0 0.00 0.18 0.18 81 1016.8
20260906025803 68 0 0.0 0.0 0.00 0.18 0.18 81 1016.7
20260906025603 68 0 0.0 0.0 0.00 0.18 0.18 81 1016.6
20260906025403 68 125 0.0 4.0 0.00 0.18 0.18 81 1016.6
20260906025224 68 125 0.0 4.0 0.00 0.18 0.18 81 1016.6
20260906025003 68 125 0.0 4.0 0.00 0.18 0.18 81 1016.6
20260906024804 68 125 0.0 4.0 0.00 0.18 0.18 81 1016.6
20260906024603 68 125 0.0 4.0 0.00 0.18 0.18 81 1016.6
20260906024403 68 0 0.0 0.0 0.00 0.18 0.18 81 1016.5
20260906024203 68 0 0.0 0.0 0.00 0.18 0.18 81 1016.5
20260906024003 68 0 0.0 0.0 0.00 0.18 0.18 81 1016.6
20260906023803 68 0 0.0 0.0 0.00 0.18 0.18 81 1016.5
20260906023603 68 0 0.0 0.0 0.00 0.18 0.18 81 1016.5
20260906023403 68 0 0.0 0.0 0.00 0.18 0.18 81 1016.6
20260906023225 68 0 0.0 0.0 0.00 0.18 0.18 81 1016.6
20260906023003 68 0 0.0 0.0 0.00 0.18 0.18 81 1016.6
20260906022803 68 0 0.0 0.0 0.00 0.18 0.18 81 1016.7
20260906022603 68 0 0.0 0.0 0.00 0.18 0.18 81 1016.6
20260906022424 68 0 0.0 0.0 0.00 0.18 0.18 80 1016.6
20260906022224 68 0 0.0 0.0 0.00 0.18 0.18 80 1016.6
20260906022024 68 0 0.0 0.0 0.00 0.18 0.18 81 1016.6
20260906021803 68 0 0.0 0.0 0.00 0.18 0.18 81 1016.6
20260906021603 68 0 0.0 0.0 0.00 0.18 0.18 81 1016.6
20260906021403 68 0 0.0 0.0 0.00 0.18 0.18 81 1016.6
20260906021203 68 0 0.0 0.0 0.00 0.18 0.18 80 1016.6
20260906021003 68 0 0.0 0.0 0.00 0.18 0.18 81 1016.7
20260906020803 68 0 0.0 0.0 0.00 0.18 0.18 81 1016.6
20260906020603 68 0 0.0 0.0 0.00 0.18 0.18 80 1016.6
20260906020403 68 0 0.0 0.0 0.00 0.18 0.18 80 1016.6
20260906020203 68 0 0.0 0.0 0.00 0.18 0.18 80 1016.6
20260906020024 68 0 0.0 0.0 0.00 0.18 0.18 80 1016.6
20260906015803 68 0 0.0 0.0 0.00 0.18 0.18 80 1016.5
20260906015624 68 0 0.0 0.0 0.00 0.18 0.18 79 1016.5
20260906015403 68 0 0.0 0.0 0.00 0.18 0.18 79 1016.4
20260906015203 68 0 0.0 0.0 0.00 0.18 0.18 79 1016.4
20260906015004 68 0 0.0 0.0 0.00 0.18 0.18 79 1016.4
20260906014803 68 0 0.0 0.0 0.00 0.18 0.18 79 1016.3
20260906014603 68 0 0.0 0.0 0.00 0.18 0.18 79 1016.4
20260906014403 68 0 0.0 0.0 0.00 0.18 0.18 79 1016.3
20260906014203 69 0 0.0 0.0 0.00 0.18 0.18 79 1016.4
20260906014003 69 0 0.0 0.0 0.00 0.18 0.18 79 1016.3
20260906013803 69 0 0.0 0.0 0.00 0.18 0.18 79 1016.3
20260906013624 69 0 0.0 0.0 0.00 0.18 0.18 79 1016.3
20260906013403 69 0 0.0 0.0 0.00 0.18 0.18 79 1016.3
20260906013203 69 0 0.0 0.0 0.00 0.18 0.18 79 1016.2
20260906013003 69 0 0.0 0.0 0.00 0.18 0.18 79 1016.2
20260906012803 69 0 0.0 0.0 0.00 0.18 0.18 79 1016.2
20260906012603 69 0 0.0 0.0 0.00 0.18 0.18 79 1016.1
20260906012403 69 0 0.0 0.0 0.00 0.18 0.18 79 1016.1
20260906012203 69 0 0.0 0.0 0.00 0.18 0.18 79 1016.0
20260906012003 70 0 0.0 0.0 0.00 0.18 0.18 79 1016.0
20260906011803 70 0 0.0 0.0 0.00 0.18 0.18 79 1016.0
20260906011624 70 0 0.0 0.0 0.00 0.18 0.18 79 1015.9
20260906011403 70 0 0.0 0.0 0.00 0.18 0.18 79 1015.9
20260906011203 70 0 0.0 0.0 0.00 0.18 0.18 79 1015.8
20260906011003 70 0 0.0 0.0 0.00 0.18 0.18 78 1015.8
20260906010803 70 0 0.0 0.0 0.00 0.18 0.18 79 1015.9
20260906010603 70 0 0.0 0.0 0.00 0.18 0.18 79 1015.9
20260906010403 70 0 0.0 0.0 0.00 0.18 0.18 79 1015.9
20260906010224 70 0 0.0 0.0 0.00 0.18 0.18 79 1015.9
20260906010003 70 0 0.0 0.0 0.00 0.18 0.18 79 1016.0
20260906005803 70 0 0.0 0.0 0.00 0.18 0.18 79 1016.0
20260906005603 70 0 0.0 0.0 0.00 0.18 0.18 79 1015.9
20260906005403 70 0 0.0 0.0 0.00 0.18 0.18 79 1015.9
20260906005203 70 0 0.0 0.0 0.00 0.18 0.18 79 1015.8
20260906005003 70 0 0.0 0.0 0.00 0.18 0.18 79 1015.8
20260906004824 70 0 0.0 0.0 0.00 0.18 0.18 79 1015.8
20260906004603 70 0 0.0 0.0 0.00 0.18 0.18 79 1015.8
20260906004403 70 0 0.0 0.0 0.00 0.18 0.18 79 1015.8
20260906004203 70 0 0.0 0.0 0.00 0.18 0.18 78 1015.8
20260906004003 71 0 0.0 0.0 0.00 0.18 0.18 79 1015.8
20260906003803 71 0 0.0 0.0 0.00 0.18 0.18 79 1015.8
20260906003603 71 0 0.0 0.0 0.00 0.18 0.18 78 1015.8
20260906003403 71 0 0.0 0.0 0.00 0.18 0.18 78 1015.8
20260906003203 71 0 0.0 0.0 0.00 0.18 0.18 79 1015.8
20260906003003 71 0 0.0 0.0 0.00 0.18 0.18 78 1015.9
20260906002803 71 0 0.0 0.0 0.00 0.18 0.18 79 1015.9
20260906002603 71 0 0.0 0.0 0.00 0.18 0.18 78 1015.8
20260906002424 71 0 0.0 0.0 0.00 0.18 0.18 79 1015.8
20260906002203 71 0 0.0 0.0 0.00 0.18 0.18 79 1015.7
20260906002003 71 0 0.0 0.0 0.00 0.18 0.18 79 1015.7
20260906001803 71 0 0.0 0.0 0.00 0.18 0.18 79 1015.8
20260906001603 71 0 0.0 0.0 0.00 0.18 0.18 79 1015.8
20260906001403 71 0 0.0 0.0 0.00 0.18 0.18 79 1015.7
20260906001203 71 0 0.0 0.0 0.00 0.18 0.18 79 1015.7
20260906001024 71 0 0.0 0.0 0.00 0.18 0.18 79 1015.6
20260906000803 71 0 0.0 0.0 0.00 0.18 0.18 79 1015.7
20260906000603 71 0 0.0 0.0 0.00 0.18 0.18 79 1015.7
20260906000403 71 0 0.0 0.0 0.00 0.18 0.18 79 1015.7
20260906000204 71 0 0.0 0.0 0.00 0.18 0.18 79 1015.7
20260906000003 71 0 0.0 0.0 0.00 0.18 0.18 79 1015.8
20260905235803 71 0 0.0 0.0 0.00 0.18 0.18 79 1015.7
20260905235603 71 0 0.0 0.0 0.00 0.18 0.18 79 1015.7
20260905235403 71 0 0.0 0.0 0.00 0.18 0.18 79 1015.7
20260905235204 71 0 0.0 0.0 0.00 0.18 0.18 79 1015.6
20260905235003 71 0 0.0 0.0 0.00 0.18 0.18 79 1015.6
20260905234803 71 0 0.0 0.0 0.00 0.18 0.18 79 1015.6
20260905234603 71 0 0.0 0.0 0.00 0.18 0.18 79 1015.6
20260905234403 71 0 0.0 0.0 0.00 0.18 0.18 79 1015.6
20260905234203 71 0 0.0 0.0 0.00 0.18 0.18 79 1015.7
20260905234024 71 0 0.0 0.0 0.00 0.18 0.18 79 1015.7
20260905233803 71 0 0.0 0.0 0.00 0.18 0.18 79 1015.7
20260905233603 71 0 0.0 0.0 0.00 0.18 0.18 79 1015.7
20260905233424 71 0 0.0 0.0 0.00 0.18 0.18 79 1015.8
20260905233203 71 0 0.0 0.0 0.00 0.18 0.18 79 1015.8
20260905233024 71 0 0.0 0.0 0.00 0.18 0.18 79 1015.7
20260905232803 71 0 0.0 0.0 0.00 0.18 0.18 79 1015.7
20260905232624 71 0 0.0 0.0 0.00 0.18 0.18 79 1015.8
20260905232203 71 0 0.0 0.0 0.00 0.18 0.18 79 1015.8
20260905232003 71 0 0.0 0.0 0.00 0.18 0.18 79 1015.8
20260905231803 71 0 0.0 0.0 0.00 0.18 0.18 79 1015.7
20260905231624 71 0 0.0 0.0 0.00 0.18 0.18 79 1015.7
20260905231424 71 0 0.0 0.0 0.00 0.18 0.18 79 1015.6
20260905231203 71 0 0.0 0.0 0.00 0.18 0.18 79 1015.6
20260905231003 71 0 0.0 0.0 0.00 0.18 0.18 78 1015.6
20260905230803 71 0 0.0 0.0 0.00 0.18 0.18 79 1015.5
20260905230603 71 0 0.0 0.0 0.00 0.18 0.18 78 1015.5
20260905230403 71 0 0.0 0.0 0.00 0.18 0.18 78 1015.5
20260905230225 71 0 0.0 0.0 0.00 0.18 0.18 78 1015.5
20260905230024 71 0 0.0 0.0 0.00 0.18 0.18 78 1015.5
20260905225803 71 183 0.0 1.0 0.00 0.18 0.18 79 1015.5
20260905225603 71 183 0.0 1.0 0.00 0.18 0.18 78 1015.5
20260905225403 71 183 0.0 1.0 0.00 0.18 0.18 79 1015.5
20260905225203 71 185 0.0 3.0 0.00 0.18 0.18 79 1015.5
20260905225003 71 185 1.0 3.0 0.00 0.18 0.18 78 1015.5
20260905224803 71 185 1.0 3.0 0.00 0.18 0.18 79 1015.5
20260905224603 71 185 1.0 3.0 0.00 0.18 0.18 78 1015.5
20260905224403 71 185 1.0 3.0 0.00 0.18 0.18 78 1015.5
20260905224203 71 185 1.0 3.0 0.00 0.18 0.18 78 1015.5
20260905224004 71 184 0.0 3.0 0.00 0.18 0.18 78 1015.4
20260905223824 71 184 0.0 3.0 0.00 0.18 0.18 78 1015.4
20260905223603 71 184 0.0 2.0 0.00 0.18 0.18 78 1015.4
20260905223403 71 183 1.0 4.0 0.00 0.18 0.18 78 1015.4
20260905223224 71 184 1.0 5.0 0.00 0.18 0.18 78 1015.4
20260905223003 71 185 1.0 5.0 0.00 0.18 0.18 78 1015.5
20260905222803 71 185 2.0 5.0 0.00 0.18 0.18 78 1015.5
20260905222603 71 185 2.0 5.0 0.00 0.18 0.18 78 1015.4
20260905222403 71 186 1.0 5.0 0.00 0.18 0.18 77 1015.4
20260905222203 71 187 1.0 5.0 0.00 0.18 0.18 78 1015.4
20260905222003 71 187 2.0 5.0 0.00 0.18 0.18 77 1015.5
20260905221803 71 186 2.0 5.0 0.00 0.18 0.18 77 1015.5
20260905221603 71 183 2.0 6.0 0.00 0.18 0.18 77 1015.5
20260905221403 71 180 2.0 6.0 0.00 0.18 0.18 77 1015.4
20260905221224 71 179 2.0 6.0 0.00 0.18 0.18 77 1015.5
20260905221024 72 177 2.0 6.0 0.00 0.18 0.18 76 1015.5
20260905220803 72 176 3.0 8.0 0.00 0.18 0.18 76 1015.4
20260905220603 72 180 3.0 9.0 0.00 0.18 0.18 76 1015.4
20260905220424 72 182 3.0 9.0 0.00 0.18 0.18 76 1015.4
20260905220224 72 183 3.0 9.0 0.00 0.18 0.18 75 1015.3
20260905220003 72 181 4.0 9.0 0.00 0.18 0.18 75 1015.3
20260905215803 72 183 3.0 9.0 0.00 0.18 0.18 75 1015.3
20260905215624 72 181 3.0 8.0 0.00 0.18 0.18 75 1015.3
20260905215403 72 179 4.0 8.0 0.00 0.18 0.18 75 1015.3
20260905215224 72 179 4.0 8.0 0.00 0.18 0.18 75 1015.2
20260905215003 73 182 3.0 8.0 0.00 0.18 0.18 75 1015.2
20260905214803 73 182 3.0 7.0 0.00 0.18 0.18 74 1015.1
20260905214624 73 181 3.0 7.0 0.00 0.18 0.18 74 1015.2
20260905214403 73 184 4.0 7.0 0.00 0.18 0.18 74 1015.1
20260905214203 73 183 4.0 9.0 0.00 0.18 0.18 74 1015.1
20260905214003 73 181 4.0 9.0 0.00 0.18 0.18 74 1015.1
20260905213803 73 180 4.0 9.0 0.00 0.18 0.18 74 1015.1
20260905213603 73 180 4.0 9.0 0.00 0.18 0.18 74 1015.1
20260905213403 73 180 4.0 10.0 0.00 0.18 0.18 73 1015.1
20260905213203 73 177 4.0 10.0 0.00 0.18 0.18 73 1015.0
20260905213003 73 176 4.0 10.0 0.00 0.18 0.18 73 1015.1
20260905212803 73 174 4.0 10.0 0.00 0.18 0.18 74 1015.0
20260905212603 73 174 4.0 10.0 0.00 0.18 0.18 73 1015.0
20260905212403 74 169 4.0 10.0 0.00 0.18 0.18 73 1015.0
20260905212203 74 171 5.0 10.0 0.00 0.18 0.18 73 1015.0
20260905212003 74 173 5.0 10.0 0.00 0.18 0.18 73 1015.0
20260905211803 74 173 5.0 10.0 0.00 0.18 0.18 73 1014.9
20260905211603 74 174 5.0 13.0 0.00 0.18 0.18 73 1014.9
20260905211403 74 176 5.0 13.0 0.00 0.18 0.18 73 1015.0
20260905211203 74 176 5.0 13.0 0.00 0.18 0.18 73 1014.9
20260905211003 74 176 5.0 13.0 0.00 0.18 0.18 73 1014.9
20260905210803 74 177 5.0 13.0 0.00 0.18 0.18 73 1014.9
20260905210624 74 178 5.0 11.0 0.00 0.18 0.18 73 1014.8
20260905210403 74 175 6.0 11.0 0.00 0.18 0.18 73 1014.8
20260905210203 74 176 6.0 11.0 0.00 0.18 0.18 74 1014.8
20260905210004 74 174 6.0 11.0 0.00 0.18 0.18 74 1014.8
20260905205824 74 176 6.0 14.0 0.00 0.18 0.18 74 1014.8
20260905205603 74 174 6.0 14.0 0.00 0.18 0.18 74 1014.8
20260905205403 74 176 6.0 14.0 0.00 0.18 0.18 73 1014.8
20260905205203 74 177 6.0 14.0 0.00 0.18 0.18 74 1014.9
20260905205003 74 178 6.0 14.0 0.00 0.18 0.18 73 1014.9
20260905204803 74 176 6.0 14.0 0.00 0.18 0.18 74 1014.9
20260905204603 74 176 6.0 14.0 0.00 0.18 0.18 74 1014.9
20260905204403 74 177 6.0 14.0 0.00 0.18 0.18 73 1014.9
20260905204203 75 176 5.0 14.0 0.00 0.18 0.18 74 1014.9
20260905204003 75 174 5.0 14.0 0.00 0.18 0.18 73 1014.9
20260905203824 75 176 5.0 9.0 0.00 0.18 0.18 73 1014.9
20260905203603 75 172 5.0 9.0 0.00 0.18 0.18 73 1014.9
20260905203403 75 173 5.0 10.0 0.00 0.18 0.18 73 1014.9
20260905203224 75 172 5.0 10.0 0.00 0.18 0.18 74 1014.9
20260905203024 75 175 5.0 10.0 0.00 0.18 0.18 73 1014.9
20260905202824 75 175 4.0 10.0 0.00 0.18 0.18 73 1014.9
20260905202603 75 179 4.0 10.0 0.00 0.18 0.18 73 1015.0
20260905202403 75 178 3.0 8.0 0.00 0.18 0.18 74 1014.9
20260905202203 75 177 3.0 7.0 0.00 0.18 0.18 74 1015.0
20260905202003 75 177 3.0 7.0 0.00 0.18 0.18 74 1014.9
20260905201803 75 175 4.0 9.0 0.00 0.18 0.18 74 1014.9
20260905201603 75 177 5.0 11.0 0.00 0.18 0.18 74 1014.9
20260905201403 75 174 5.0 11.0 0.00 0.18 0.18 73 1014.9
20260905201203 75 174 5.0 11.0 0.00 0.18 0.18 73 1015.0
20260905201003 75 174 5.0 11.0 0.00 0.18 0.18 73 1015.0
20260905200803 76 173 5.0 11.0 0.00 0.18 0.18 73 1014.9
20260905200603 76 172 5.0 9.0 0.00 0.18 0.18 73 1015.0
20260905200403 76 173 4.0 8.0 0.00 0.18 0.18 73 1015.0
20260905200203 76 174 4.0 8.0 0.00 0.18 0.18 73 1015.0
20260905200003 76 173 4.0 8.0 0.00 0.18 0.18 73 1015.0
20260905195803 76 175 4.0 8.0 0.00 0.18 0.18 73 1015.0
20260905195603 76 175 4.0 8.0 0.00 0.18 0.18 73 1014.9
20260905195403 76 176 4.0 10.0 0.00 0.18 0.18 73 1014.9
20260905195203 76 175 4.0 10.0 0.00 0.18 0.18 73 1014.9
20260905195004 76 175 4.0 10.0 0.00 0.18 0.18 72 1014.9
20260905194803 76 172 4.0 10.0 0.00 0.18 0.18 72 1015.0
20260905194603 76 170 4.0 10.0 0.00 0.18 0.18 72 1015.0
20260905194403 76 170 4.0 7.0 0.00 0.18 0.18 72 1015.0
20260905194203 76 173 4.0 7.0 0.00 0.18 0.18 72 1014.9
20260905194003 76 173 4.0 7.0 0.00 0.18 0.18 72 1014.9
20260905193803 76 180 4.0 10.0 0.00 0.18 0.18 73 1014.9
20260905193603 76 180 4.0 10.0 0.00 0.18 0.18 73 1014.9
20260905193403 76 182 4.0 10.0 0.00 0.18 0.18 72 1014.9
20260905193203 76 183 4.0 10.0 0.00 0.18 0.18 72 1014.9
20260905193024 76 184 4.0 10.0 0.00 0.18 0.18 73 1014.9
20260905192803 76 183 4.0 7.0 0.00 0.18 0.18 73 1014.9
20260905192603 76 184 4.0 7.0 0.00 0.18 0.18 73 1014.9
20260905192403 76 181 4.0 6.0 0.00 0.18 0.18 73 1015.0
20260905192203 76 180 3.0 6.0 0.00 0.18 0.18 73 1015.0
20260905192003 76 179 3.0 6.0 0.00 0.18 0.18 73 1015.0
20260905191803 76 179 3.0 7.0 0.00 0.18 0.18 73 1015.0
20260905191603 76 178 3.0 7.0 0.00 0.18 0.18 73 1015.0